Iowa City, IA

9:48 AM CDT on October 20, 2019 (GMT -0500)
Iowa City Municipal

Weather History for KIOW - July, 2019

Change the Weather History Date:

Monday, July 15, 2019

  Actual Average Record
Temperature  
Mean Temperature 82 °F 75 °F  
Max Temperature 92 °F 85 °F 102 °F (1988)
Min Temperature 72 °F 65 °F 52 °F (1960)
Degree Days  
Heating Degree Days 0 0  
Month to date heating degree days 0 0  
Since 1 June heating degree days 6 17  
Since 1 July heating degree days 0 0  
Cooling Degree Days 17 10  
Month to date cooling degree days 214 150  
Year to date cooling degree days 458 422  
Since 1 June cooling degree days 412 361  
Growing Degree Days 33 (Base 50)    
Moisture  
Dew Point 67 °F    
Average Humidity 62    
Maximum Humidity 79    
Minimum Humidity 44    
Precipitation  
Precipitation 0.00 in 0.18 in 2.34 in (1976)
Month to date precipitation 0.30 2.69  
Year to date precipitation 24.03 19.39  
Sea Level Pressure  
Sea Level Pressure 29.99 in    
Wind  
Wind Speed 10 mph (South)    
Max Wind Speed 22 mph    
Max Gust Speed 29 mph    
Visibility 10 miles    
Events      
T = Trace of Precipitation, MM = Missing Value Source: NWS Daily Summary

Daily Weather History Graph

Daily Weather History Graph

Search for Another Location

Airport or City:

Astronomy

Jul. 15, 2019 Rise Set
Actual Time 5:44 AM CDT 8:39 PM CDT
Civil Twilight 5:11 AM CDT 9:12 PM CDT
Nautical Twilight 4:29 AM CDT 9:53 PM CDT
Astronomical Twilight 3:41 AM CDT 10:42 PM CDT
Moon 7:57 PM CDT (7/15) 4:32 AM CDT (7/15)
Length of Visible Light 16h 00m
Length of Day
14h 54m
Waxing Gibbous, 99% of the Moon is Illuminated
Jul 15
Waxing Gibbous
Jul 16
Full
Jul 24
Last Quarter
Jul 31
New
Aug 7
First Quarter

Hourly Weather History & Observations

Time (CDT) Temp. Heat Index Dew Point Humidity Pressure Visibility Wind Dir Wind Speed Gust Speed Precip Events Conditions
12:52 AM 79.0 °F - 72.0 °F 79% 30.01 in 10.0 mi SSE 6.9 mph - N/A   Clear
1:52 AM 79.0 °F - 72.0 °F 79% 30.01 in 10.0 mi South 6.9 mph - N/A   Clear
2:52 AM 80.1 °F 83.6 °F 71.1 °F 74% 30.01 in 10.0 mi SSW 6.9 mph - N/A   Clear
3:52 AM 78.1 °F - 70.0 °F 76% 30.01 in 10.0 mi SW 5.8 mph - N/A   Clear
4:52 AM 77.0 °F - 69.1 °F 76% 30.02 in 10.0 mi SSW 6.9 mph - N/A   Clear
5:52 AM 75.9 °F - 68.0 °F 76% 30.04 in 10.0 mi SSW 5.8 mph - N/A   Clear
6:52 AM 75.9 °F - 68.0 °F 76% 30.05 in 10.0 mi South 6.9 mph - N/A   Clear
7:52 AM 78.1 °F - 66.0 °F 66% 30.06 in 10.0 mi SSW 8.1 mph - N/A   Clear
8:52 AM 80.1 °F 81.9 °F 64.9 °F 60% 30.05 in 10.0 mi SSW 15.0 mph 20.7 mph N/A   Clear
9:52 AM 82.0 °F 83.8 °F 64.9 °F 56% 30.04 in 10.0 mi South 12.7 mph - N/A   Clear
10:52 AM 84.9 °F 86.6 °F 64.9 °F 51% 30.03 in 10.0 mi SSW 12.7 mph - N/A   Clear
11:52 AM 87.1 °F 88.9 °F 64.9 °F 48% 30.01 in 10.0 mi South 15.0 mph - N/A   Clear
12:52 PM 89.1 °F 91.0 °F 64.9 °F 45% 29.99 in 10.0 mi SSE 12.7 mph 21.9 mph N/A   Clear
1:52 PM 90.0 °F 92.4 °F 66.0 °F 45% 29.98 in 10.0 mi SSE 16.1 mph 26.5 mph N/A   Clear
2:52 PM 91.0 °F 94.3 °F 66.9 °F 45% 29.97 in 10.0 mi South 17.3 mph 24.2 mph N/A   Partly Cloudy
3:52 PM 91.0 °F 94.3 °F 66.9 °F 45% 29.96 in 10.0 mi South 13.8 mph 26.5 mph N/A   Scattered Clouds
4:52 PM 88.0 °F 90.3 °F 66.0 °F 48% 29.95 in 10.0 mi South 13.8 mph 27.6 mph N/A   Scattered Clouds
5:52 PM 88.0 °F 90.3 °F 66.0 °F 48% 29.94 in 10.0 mi SSE 13.8 mph - N/A   Partly Cloudy
6:52 PM 84.9 °F 87.1 °F 66.0 °F 53% 29.91 in 10.0 mi South 13.8 mph - N/A   Clear
7:52 PM 82.9 °F 85.0 °F 66.0 °F 56% 29.92 in 10.0 mi South 10.4 mph - N/A   Clear
8:52 PM 80.1 °F 82.3 °F 66.9 °F 64% 29.93 in 10.0 mi South 6.9 mph - N/A   Clear
9:52 PM 77.0 °F - 66.9 °F 71% 29.95 in 10.0 mi SSE 6.9 mph - N/A   Clear
10:52 PM 75.0 °F - 66.9 °F 76% 29.96 in 10.0 mi SSE 3.5 mph - N/A   Clear
11:52 PM 73.0 °F - 66.9 °F 81% 29.96 in 10.0 mi SE 4.6 mph - N/A   Clear